Duncan, OK

12:28 AM CDT on April 30, 2017 (GMT -0500)
Halliburton

Weather History for KDUC - April, 2014

Change the Weather History Date:

Saturday, April 12, 2014

  Actual Average (KLAW) Record (KLAW)
Temperature  
Mean Temperature 71 °F -  
Max Temperature 82 °F 73 °F 99 °F (1972)
Min Temperature 60 °F 50 °F 27 °F (1997)
Cooling Degree Days 6    
Growing Degree Days 21 (Base 50)    
Moisture  
Dew Point 62 °F    
Average Humidity 72    
Maximum Humidity 100    
Minimum Humidity 48    
Precipitation  
Precipitation 0.00 in - - ()
Sea Level Pressure  
Sea Level Pressure 29.77 in    
Wind  
Wind Speed 13 mph (SSE)    
Max Wind Speed 26 mph    
Max Gust Speed 32 mph    
Visibility 10 miles    
Events      
Averages and records for this station are not official NWS values.
T = Trace of Precipitation, MM = Missing Value Source: NWS Daily Summary

Daily Weather History Graph

Daily Weather History Graph

Search for Another Location

Airport or City:

Trip Planner

Search our weather history database for the weather conditions in past years. The results will help you decide how hot, cold, wet, or windy it might be!

Date:

Astronomy

Apr. 12, 2014 Rise Set
Actual Time 7:04 AM CDT 8:01 PM CDT
Civil Twilight 6:38 AM CDT 8:27 PM CDT
Nautical Twilight 6:08 AM CDT 8:57 PM CDT
Astronomical Twilight 5:36 AM CDT 9:29 PM CDT
Moon 5:46 PM CDT (4/12) 5:25 AM CDT (4/12)
Length of Visible Light 13h 48m
Length of Day
12h 57m
Waxing Gibbous, 93% of the Moon is Illuminated
Apr 12
Waxing Gibbous
Apr 15
Full
Apr 22
Last Quarter
Apr 29
New
May 6
First Quarter

Hourly Weather History & Observations

Time (CDT) Temp. Heat Index Dew Point Humidity Pressure Visibility Wind Dir Wind Speed Gust Speed Precip Events Conditions
12:15 AM 68.0 °F - 62.6 °F 83% 29.89 in 10.0 mi SE 8.1 mph - N/A   Clear
12:35 AM 68.0 °F - 62.6 °F 83% 29.88 in 10.0 mi SE 3.5 mph - N/A   Clear
12:55 AM 68.0 °F - 62.6 °F 83% 29.87 in 10.0 mi SE 5.8 mph - N/A   Clear
1:15 AM 68.0 °F - 62.6 °F 83% 29.87 in 10.0 mi SSE 6.9 mph - N/A   Clear
1:35 AM 68.0 °F - 62.6 °F 83% 29.86 in 10.0 mi SSE 9.2 mph - N/A   Clear
1:55 AM 68.0 °F - 62.6 °F 83% 29.85 in 10.0 mi SSE 3.5 mph - N/A   Clear
2:15 AM 68.0 °F - 62.6 °F 83% 29.85 in 10.0 mi SSE 9.2 mph - N/A   Clear
2:35 AM 68.0 °F - 62.6 °F 83% 29.85 in 10.0 mi SSE 10.4 mph - N/A   Clear
2:55 AM 66.2 °F - 62.6 °F 88% 29.84 in 10.0 mi SSE 10.4 mph - N/A   Clear
3:15 AM 66.2 °F - 62.6 °F 88% 29.84 in 10.0 mi SSE 9.2 mph - N/A   Clear
3:35 AM 64.4 °F - 62.6 °F 94% 29.84 in 10.0 mi SSE 10.4 mph - N/A   Clear
3:55 AM 64.4 °F - 62.6 °F 94% 29.83 in 10.0 mi SSE 10.4 mph - N/A   Clear
4:15 AM 64.4 °F - 62.6 °F 94% 29.83 in 10.0 mi SSE 11.5 mph - N/A   Clear
4:35 AM 64.4 °F - 62.6 °F 94% 29.82 in 10.0 mi SSE 13.8 mph - N/A   Clear
4:55 AM 64.4 °F - 62.6 °F 94% 29.83 in 10.0 mi SSE 12.7 mph - N/A   Clear
5:15 AM 64.4 °F - 62.6 °F 94% 29.82 in 10.0 mi SSE 12.7 mph - N/A   Clear
5:35 AM 62.6 °F - 62.6 °F 100% 29.82 in 10.0 mi SSE 11.5 mph - N/A   Clear
5:55 AM 62.6 °F - 62.6 °F 100% 29.83 in 10.0 mi SSE 11.5 mph - N/A   Clear
6:15 AM 62.6 °F - 60.8 °F 94% 29.82 in 10.0 mi SSE 10.4 mph - N/A   Clear
6:35 AM 62.6 °F - 60.8 °F 94% 29.83 in 10.0 mi SSE 9.2 mph - N/A   Clear
6:55 AM 62.6 °F - 60.8 °F 94% 29.84 in 10.0 mi SSE 12.7 mph 17.3 mph N/A   Clear
7:15 AM 62.6 °F - 60.8 °F 94% 29.84 in 10.0 mi SSE 11.5 mph - N/A   Clear
7:35 AM 60.8 °F - 60.8 °F 100% 29.85 in 10.0 mi SSE 11.5 mph 16.1 mph N/A   Clear
7:55 AM 60.8 °F - 60.8 °F 100% 29.85 in 10.0 mi SSE 11.5 mph - N/A   Clear
8:15 AM 62.6 °F - 62.6 °F 100% 29.85 in 10.0 mi South 12.7 mph - N/A   Clear
8:35 AM 62.6 °F - 62.6 °F 100% 29.85 in 10.0 mi South 16.1 mph - N/A   Scattered Clouds
8:55 AM 64.4 °F - 62.6 °F 94% 29.85 in 10.0 mi South 17.3 mph 21.9 mph N/A   Mostly Cloudy
9:15 AM 66.2 °F - 62.6 °F 88% 29.85 in 10.0 mi South 17.3 mph 21.9 mph N/A   Mostly Cloudy
9:35 AM 68.0 °F - 62.6 °F 83% 29.85 in 10.0 mi South 19.6 mph 25.3 mph N/A   Scattered Clouds
9:55 AM 68.0 °F - 62.6 °F 83% 29.85 in 10.0 mi South 19.6 mph 25.3 mph N/A   Scattered Clouds
10:15 AM 69.8 °F - 62.6 °F 78% 29.85 in 10.0 mi South 21.9 mph 26.5 mph N/A   Scattered Clouds
10:35 AM 71.6 °F - 62.6 °F 73% 29.84 in 10.0 mi South 16.1 mph 23.0 mph N/A   Clear
10:55 AM 71.6 °F - 62.6 °F 73% 29.84 in 10.0 mi South 19.6 mph 25.3 mph N/A   Clear
11:15 AM 73.4 °F - 62.6 °F 69% 29.84 in 10.0 mi South 20.7 mph 24.2 mph N/A   Clear
11:35 AM 73.4 °F - 62.6 °F 69% 29.83 in 10.0 mi South 18.4 mph 25.3 mph N/A   Clear
11:55 AM 75.2 °F - 62.6 °F 65% 29.82 in 10.0 mi South 20.7 mph 26.5 mph N/A   Clear
12:15 PM 73.4 °F - 62.6 °F 69% 29.82 in 10.0 mi South 18.4 mph 26.5 mph N/A   Clear
12:35 PM 77.0 °F - 62.6 °F 61% 29.81 in 10.0 mi South 19.6 mph 24.2 mph N/A   Clear
12:55 PM 77.0 °F - 62.6 °F 61% 29.80 in 10.0 mi South 19.6 mph 28.8 mph N/A   Clear
1:15 PM 77.0 °F - 62.6 °F 61% 29.79 in 10.0 mi South 23.0 mph 27.6 mph N/A   Clear
1:35 PM 78.8 °F - 62.6 °F 57% 29.78 in 10.0 mi South 19.6 mph 28.8 mph N/A   Clear
1:55 PM 78.8 °F - 62.6 °F 57% 29.77 in 10.0 mi South 21.9 mph 25.3 mph N/A   Clear
2:15 PM 80.6 °F 81.5 °F 60.8 °F 51% 29.76 in 10.0 mi South 19.6 mph 27.6 mph N/A   Clear
2:35 PM 80.6 °F 81.5 °F 60.8 °F 51% 29.75 in 10.0 mi South 20.7 mph 27.6 mph N/A   Clear
2:55 PM 80.6 °F 81.5 °F 60.8 °F 51% 29.73 in 10.0 mi South 23.0 mph 29.9 mph N/A   Clear
3:15 PM 80.6 °F 81.5 °F 60.8 °F 51% 29.73 in 10.0 mi South 21.9 mph 32.2 mph N/A   Clear
3:35 PM 80.6 °F 81.5 °F 60.8 °F 51% 29.73 in 10.0 mi South 21.9 mph 32.2 mph N/A   Clear
3:55 PM 80.6 °F 81.5 °F 60.8 °F 51% 29.72 in 10.0 mi South 23.0 mph 28.8 mph N/A   Clear
4:15 PM 80.6 °F 81.5 °F 60.8 °F 51% 29.71 in 10.0 mi South 24.2 mph 28.8 mph N/A   Clear
4:35 PM 80.6 °F 81.5 °F 60.8 °F 51% 29.70 in 10.0 mi South 21.9 mph 27.6 mph N/A   Clear
4:55 PM 80.6 °F 81.5 °F 60.8 °F 51% 29.69 in 10.0 mi South 26.5 mph 32.2 mph N/A   Clear
5:15 PM 82.4 °F 82.9 °F 60.8 °F 48% 29.67 in 10.0 mi South 23.0 mph 29.9 mph N/A   Clear
5:35 PM 82.4 °F 82.9 °F 60.8 °F 48% 29.67 in 10.0 mi South 23.0 mph 31.1 mph N/A   Clear
5:55 PM 80.6 °F 81.5 °F 60.8 °F 51% 29.67 in 10.0 mi South 24.2 mph 28.8 mph N/A   Clear
6:15 PM 80.6 °F 81.5 °F 60.8 °F 51% 29.67 in 10.0 mi South 21.9 mph 27.6 mph N/A   Clear
6:35 PM 80.6 °F 81.1 °F 59.0 °F 48% 29.66 in 10.0 mi South 23.0 mph 32.2 mph N/A   Clear
6:55 PM 80.6 °F 81.1 °F 59.0 °F 48% 29.66 in 10.0 mi South 24.2 mph 31.1 mph N/A   Clear
7:15 PM 80.6 °F 81.1 °F 59.0 °F 48% 29.66 in 10.0 mi South 16.1 mph 27.6 mph N/A   Clear
7:35 PM 78.8 °F - 59.0 °F 51% 29.66 in 10.0 mi South 20.7 mph 26.5 mph N/A   Clear
7:55 PM 78.8 °F - 60.8 °F 54% 29.66 in 10.0 mi SSE 18.4 mph 23.0 mph N/A   Clear
8:15 PM 77.0 °F - 60.8 °F 57% 29.65 in 10.0 mi SSE 17.3 mph 23.0 mph N/A   Clear
8:35 PM 77.0 °F - 60.8 °F 57% 29.65 in 10.0 mi SSE 17.3 mph - N/A   Clear
8:55 PM 77.0 °F - 60.8 °F 57% 29.65 in 10.0 mi SSE 19.6 mph - N/A   Clear
9:15 PM 75.2 °F - 60.8 °F 61% 29.66 in 10.0 mi SSE 16.1 mph 23.0 mph N/A   Clear
9:35 PM 75.2 °F - 60.8 °F 61% 29.66 in 10.0 mi SSE 17.3 mph 24.2 mph N/A   Clear
9:55 PM 75.2 °F - 60.8 °F 61% 29.67 in 10.0 mi SSE 18.4 mph 21.9 mph N/A   Clear
10:15 PM 73.4 °F - 60.8 °F 65% 29.67 in 10.0 mi SSE 17.3 mph 24.2 mph N/A   Clear
10:35 PM 75.2 °F - 60.8 °F 61% 29.68 in 10.0 mi SSE 17.3 mph 25.3 mph N/A   Clear
10:55 PM 75.2 °F - 60.8 °F 61% 29.67 in 10.0 mi South 17.3 mph - N/A   Clear
11:15 PM 73.4 °F - 60.8 °F 65% 29.66 in 10.0 mi South 18.4 mph 25.3 mph N/A   Clear
11:35 PM 73.4 °F - 60.8 °F 65% 29.66 in 10.0 mi South 19.6 mph 27.6 mph N/A   Clear
11:55 PM 73.4 °F - 60.8 °F 65% 29.66 in 10.0 mi South 18.4 mph 26.5 mph N/A   Clear